Tracking 29892 objects as of 21-Nov-2024
HD Live streaming from Space Station
objects crossing your sky now

STARLINK-2190

Track STARLINK-2190 now!
10-day predictions
STARLINK-2190 is classified as:


NORAD ID: 48564
Int'l Code: 2021-041M
Perigee: 553.5 km
Apogee: 555.2 km
Inclination: 53.1 °
Period: 95.6 minutes
Semi major axis: 6925 km
RCS: Unknown
Launch date: May 15, 2021
Source: United States (US)
Launch site: AIR FORCE EASTERN TEST RANGE (AFETR)
Your satellite tracking list
Your tracking list is empty




NASA's NSSDC Master Catalog

Two Line Element Set (TLE):
1 48564U 21041M   24325.37939131  .00007138  00000-0  49749-3 0  9992
2 48564  53.0529 100.8782 0001202 100.9923 259.1201 15.06408432193712
Source of the keplerian elements: AFSPC